Weather History for South Bend, IN

Change the Weather History Date:

Sunday, September 11, 2011

  Actual Average Record
Temperature  
Mean Temperature 71 °F 66 °F  
Max Temperature 81 °F 76 °F 96 °F (1931)
Min Temperature 61 °F 56 °F 33 °F (1917)
Degree Days  
Heating Degree Days 0 2  
Month to date heating degree days 24 17  
Since 1 July heating degree days 24 35  
Cooling Degree Days 6 3  
Month to date cooling degree days 62 46  
Year to date cooling degree days 948 728  
Growing Degree Days 21 (Base 50)    
Moisture  
Dew Point 61 °F    
Average Humidity 71    
Maximum Humidity 100    
Minimum Humidity 42    
Precipitation  
Precipitation T in 0.11 in 1.83 in (1947)
Month to date precipitation 0.49 1.30  
Year to date precipitation 32.67 26.57  
Snow  
Snow 0.00 in - - ()
Month to date snowfall 0.0  
Snow Depth 0.00 in    
Sea Level Pressure  
Sea Level Pressure 30.02 in    
Wind  
Wind Speed 4 mph (West)    
Max Wind Speed 14 mph    
Max Gust Speed 18 mph    
Visibility 6 miles    
Events Rain    
T = Trace of Precipitation, MM = Missing Value Source: NWS Daily Summary

Daily Weather History Graph

Daily Weather History Graph

Search for Another Location

Airport:

Trip Planner

Search our weather history database for the weather conditions in past years. The results will help you decide how hot, cold, wet, or windy it might be!

Date:

Astronomy

Sep. 11, 2011 Rise Set
Actual Time 7:21 AM EDT 8:02 PM EDT
Civil Twilight 6:53 AM EDT 8:30 PM EDT
Nautical Twilight 6:19 AM EDT 9:03 PM EDT
Astronomical Twilight 5:45 AM EDT 9:37 PM EDT
Moon 7:23 PM EDT (9/11) 6:39 AM EDT (9/11)
Length of Visible Light 13h 36m
Length of Day
12h 40m
Full, 100% of the Moon is Illuminated
Sep 11
Full
Sep 12
Full
Sep 20
Last Quarter
Sep 27
New
Oct 3
First Quarter

Hourly Weather History & Observations

Time (EDT) Temp. Heat Index Dew Point Humidity Pressure Visibility Wind Dir Wind Speed Gust Speed Precip Events Conditions
12:50 AM 62.6 °F - 60.8 °F 94% 30.04 in 1.8 mi Calm Calm - N/A   Partly Cloudy
12:54 AM 62.1 °F - 61.0 °F 96% 30.04 in 1.8 mi Calm Calm - N/A   Partly Cloudy
1:13 AM 62.6 °F - 60.8 °F 94% 30.04 in 3.0 mi Calm Calm - N/A   Mostly Cloudy
1:54 AM 63.0 °F - 62.1 °F 97% 30.03 in 4.0 mi Calm Calm - N/A   Mostly Cloudy
1:57 AM 62.6 °F - 62.6 °F 100% 30.04 in 4.0 mi Calm Calm - N/A   Mostly Cloudy
2:54 AM 64.0 °F - 63.0 °F 96% 30.02 in 3.0 mi Calm Calm - 0.00 in Rain Light Rain
3:21 AM 64.4 °F - 62.6 °F 94% 30.03 in 2.5 mi Calm Calm - N/A Rain Light Rain
3:54 AM 64.0 °F - 63.0 °F 96% 30.02 in 2.5 mi Calm Calm - 0.00 in   Overcast
4:54 AM 64.0 °F - 64.0 °F 100% 30.02 in 2.5 mi Calm Calm - N/A   Overcast
5:54 AM 64.0 °F - 63.0 °F 96% 30.03 in 2.5 mi Calm Calm - N/A   Overcast
6:54 AM 64.0 °F - 63.0 °F 96% 30.03 in 2.5 mi Calm Calm - N/A   Overcast
7:16 AM 64.4 °F - 64.4 °F 100% 30.04 in 2.5 mi Calm Calm - N/A   Overcast
7:32 AM 64.4 °F - 64.4 °F 100% 30.04 in 2.5 mi Calm Calm - N/A   Overcast
7:36 AM 64.4 °F - 64.4 °F 100% 30.05 in 4.0 mi Calm Calm - N/A   Overcast
7:54 AM 64.9 °F - 64.0 °F 97% 30.04 in 3.0 mi Calm Calm - N/A   Mostly Cloudy
8:54 AM 64.9 °F - 64.0 °F 97% 30.05 in 3.0 mi Calm Calm - N/A   Partly Cloudy
9:54 AM 68.0 °F - 64.0 °F 87% 30.05 in 6.0 mi WSW 3.5 mph - N/A   Mostly Cloudy
10:54 AM 72.0 °F - 63.0 °F 73% 30.05 in 9.0 mi West 6.9 mph - N/A   Clear
11:54 AM 75.0 °F - 60.1 °F 60% 30.04 in 10.0 mi West 6.9 mph - N/A   Clear
12:54 PM 77.0 °F - 59.0 °F 54% 30.03 in 10.0 mi West 8.1 mph - N/A   Partly Cloudy
1:54 PM 78.1 °F - 60.1 °F 54% 30.01 in 10.0 mi SW 4.6 mph - N/A   Scattered Clouds
2:54 PM 79.0 °F - 59.0 °F 50% 29.99 in 10.0 mi NW 6.9 mph - N/A   Scattered Clouds
3:54 PM 80.1 °F 80.6 °F 57.9 °F 47% 29.98 in 10.0 mi WNW 12.7 mph 17.3 mph N/A   Clear
4:54 PM 80.1 °F 80.4 °F 57.0 °F 45% 29.97 in 10.0 mi WNW 12.7 mph 16.1 mph N/A   Scattered Clouds
5:54 PM 79.0 °F - 53.1 °F 40% 29.98 in 10.0 mi WNW 11.5 mph - N/A   Partly Cloudy
6:54 PM 78.1 °F - 57.0 °F 48% 29.98 in 10.0 mi WNW 6.9 mph - N/A   Partly Cloudy
7:54 PM 73.9 °F - 59.0 °F 59% 29.97 in 10.0 mi Calm Calm - N/A   Clear
8:54 PM 69.1 °F - 60.1 °F 73% 29.99 in 10.0 mi Calm Calm - N/A   Clear
9:54 PM 66.9 °F - 60.1 °F 79% 30.01 in 10.0 mi Calm Calm - N/A   Clear
10:54 PM 64.9 °F - 59.0 °F 81% 30.00 in 10.0 mi Calm Calm - N/A   Clear
11:54 PM 64.9 °F - 59.0 °F 81% 30.00 in 10.0 mi SSW 4.6 mph - N/A   Clear